Regional Weather Roundup
Issued by NWS Charleston, WV

Home | Current Version | Previous Version | Graphics & Text | Print | Product List | Glossary On
Versions: 1 2 3 4 5 6 7 8 9 10 11 12 13 14 15 16 17 18 19 20 21 22 23 24 25 26 27 28 29 30 31 32 33 34 35 36 37 38 39 40 41 42 43 44 45 46 47 48 49 50
141
ASUS41 KRLX 201810
RWRRLX
West Virginia Regional Weather Roundup
National Weather Service Charleston WV
200 PM EDT FRI APR 20 2018

Note: "fair" indicates few or no clouds below 12,000 feet with no
significant weather and/or obstructions to visibility.

WVZ003-201900-
Northern Panhandle of West Virginia

CITY           SKY/WX    TMP DP  RH WIND       PRES   REMARKS
WHEELING       FAIR      52  25  35 NW13G20   30.40F
$$

WVZ009-201900-
Northwest West Virginia

CITY           SKY/WX    TMP DP  RH WIND       PRES   REMARKS
PARKERSBURG    FAIR      53  21  28 NW8G21    30.46F
$$

WVZ006-201900-
Western West Virginia

CITY           SKY/WX    TMP DP  RH WIND       PRES   REMARKS
HUNTINGTON     FAIR      55  18  23 N5        30.43F
$$

WVZ015-201900-
West Central West Virginia

CITY           SKY/WX    TMP DP  RH WIND       PRES   REMARKS
CHARLESTON     FAIR      56  21  25 VRB3      30.42F
$$

WVZ022-031-201900-
North Central West Virginia

CITY           SKY/WX    TMP DP  RH WIND       PRES   REMARKS
CLARKSBURG     FAIR      53  24  32 NW10G16   30.39F
MORGANTOWN     FAIR      51  24  34 N8        30.39F
$$

WVZ025-035-042-045-201900-
Southern West Virginia

CITY           SKY/WX    TMP DP  RH WIND       PRES   REMARKS
BECKLEY        FAIR      49  18  29 MISG      30.37F
LOGAN          FAIR      54  14  20 CALM      30.40S
BLUEFIELD      FAIR      47  12  24 VRB6      30.36F
LEWISBURG      FAIR      50  16  25 NW6       30.35F
$$

WVZ047-201900-
Northern Mountains of West Virginia

CITY           SKY/WX    TMP DP  RH WIND       PRES   REMARKS
ELKINS         FAIR      49  21  33 W8        30.37F
$$

WVZ052-201900-
Eastern Panhandle of West Virginia

CITY           SKY/WX    TMP DP  RH WIND       PRES   REMARKS
MARTINSBURG    FAIR      55  22  27 NW17      30.28F
PETERSBURG     FAIR      53  24  32 N8G21     30.32F
$$




USA.gov is the U.S. government's official web portal to all federal, state and local government web resources and services.